Theta_e
342 349 350 351 351 350 349 348 349 349 351 352 352 353 353 353 353 353 353 353 352 351 350 348 348 348 346 346 345 346 347 347 348 348 346 345 344 345 346 345 344 341 345
344 350 350 351 351 350 349 349 349 350 351 350 351 351 351 352 352 352 352 352 352 350 349 347 348 348 346 345 344 345 346 346 345 346 345 345 345 345 343 344 344 341 343
346 350 349 349 350 350 350 350 351 351 350 349 349 349 350 350 350 350 351 351 350 348 347 346 347 347 346 345 345 345 344 344 344 344 343 337 338 345 345 344 343 343 342
348 349 348 348 349 349 350 350 351 351 350 349 349 348 348 347 347 347 347 348 348 346 346 346 346 346 345 345 345 344 344 343 341 340 337 337 340 344 344 344 343 342 342
347 349 348 347 347 349 349 350 350 350 350 350 349 347 347 346 346 345 346 346 346 345 345 345 345 344 344 342 342 342 341 341 339 336 336 334 338 343 343 342 341 341 341
347 348 346 345 347 349 350 350 350 349 348 348 348 348 346 346 345 344 345 346 346 343 343 342 342 342 341 340 340 340 339 339 337 333 334 339 337 342 342 341 340 340 340
345 346 345 344 346 348 350 350 349 347 347 347 348 347 347 346 345 345 345 345 345 343 341 339 338 338 337 337 338 337 337 337 333 331 335 334 337 342 341 340 339 339 339
343 345 345 346 346 347 349 348 346 345 345 345 346 346 346 346 345 344 344 343 342 342 340 338 337 336 336 336 336 335 334 335 332 330 332 333 340 343 340 338 337 337 337
341 344 344 344 346 345 344 344 342 343 343 343 344 344 344 343 342 344 343 342 340 338 337 336 336 336 336 337 337 335 334 335 328 329 335 334 343 342 340 338 335 334 335
336 340 342 344 343 343 342 341 341 341 341 342 342 342 341 341 341 341 341 340 339 337 335 333 331 332 333 335 334 333 333 334 326 327 329 333 342 342 341 338 336 333 332
333 336 340 341 343 339 338 341 341 341 341 340 342 341 338 336 337 339 338 339 338 336 334 332 329 327 327 330 331 332 333 327 326 328 329 334 341 343 342 339 335 332 331
329 332 337 340 340 336 340 337 336 338 338 338 338 337 335 333 333 337 337 338 338 337 335 333 330 328 325 316 318 328 326 326 325 326 326 333 339 343 341 338 336 333 330
331 332 334 336 337 337 337 336 335 335 334 336 335 335 333 333 332 333 331 333 331 336 328 329 325 323 320 316 314 314 323 325 324 325 327 334 339 343 342 339 336 334 331
331 332 334 335 336 336 336 335 334 335 334 335 336 334 333 330 329 328 329 329 329 329 326 324 323 322 321 320 316 315 321 323 323 322 325 331 336 341 340 339 337 335 333
332 332 333 334 335 336 335 335 334 334 335 335 334 335 335 331 330 329 329 328 327 326 325 323 322 322 321 322 322 322 323 322 319 318 323 329 331 336 339 337 336 336 335
336 335 334 334 334 335 335 334 333 334 334 334 334 335 335 333 331 330 329 329 327 327 325 323 323 323 323 324 321 321 320 320 319 320 322 323 327 330 333 335 336 335 334
339 338 335 334 334 334 334 334 334 334 334 334 334 334 335 334 332 332 331 330 330 329 326 326 325 326 324 324 323 322 322 321 320 318 318 318 320 324 327 331 332 333 333
340 339 339 337 335 335 335 336 335 334 334 334 334 335 335 336 334 332 332 331 332 330 329 327 326 324 324 323 322 321 319 317 318 317 317 316 317 318 322 325 328 330 330
340 340 338 338 336 336 336 337 337 336 335 335 336 336 336 337 337 334 333 333 330 330 330 329 325 323 321 320 320 318 317 316 316 318 316 315 315 316 317 321 324 325 327
339 341 340 338 338 337 338 338 338 337 337 337 337 337 337 337 337 335 334 332 331 330 329 326 323 321 321 320 319 318 316 315 314 313 314 314 313 314 314 315 315 317 322
335 338 339 338 338 338 337 336 336 335 337 337 337 337 337 338 337 336 335 332 331 330 330 328 322 320 319 319 314 311 310 311 310 311 311 311 312 314 313 314 313 313 315
330 336 337 338 338 338 339 338 336 336 336 336 336 336 338 337 337 336 335 333 332 331 328 327 324 317 319 318 314 308 302 303 305 308 309 311 311 311 312 312 312 314 314
329 333 335 338 338 339 339 338 328 328 328 328 330 333 335 337 337 336 335 334 332 331 329 328 326 321 317 316 314 308 300 297 299 304 305 306 307 307 308 309 310 311 311
329 333 335 337 337 338 338 335 333 332 330 332 333 333 333 334 336 336 337 335 334 332 330 328 324 324 320 314 313 313 308 302 301 299 303 304 305 307 306 307 307 308 307
324 329 332 334 334 335 334 334 332 330 330 326 328 328 330 330 333 334 334 334 334 332 330 324 318 318 316 312 311 308 307 305 304 303 299 300 302 305 305 305 306 307 307
323 325 329 331 332 330 331 329 331 330 327 324 324 327 327 329 332 333 334 334 334 333 328 324 321 317 316 314 311 309 307 304 301 299 299 300 299 302 304 307 305 306 307
Wind_Speed
8 14 15 15 14 11 12 13 14 14 14 15 16 16 15 14 13 12 12 12 13 14 14 13 13 14 14 14 14 14 14 12 11 12 13 13 13 14 14 12 11 8 13
11 14 17 16 15 14 12 12 14 13 13 14 14 15 14 14 12 12 11 11 12 13 13 13 12 13 13 13 12 11 11 10 10 10 10 11 12 12 12 12 12 11 13
13 11 14 16 16 14 13 12 13 12 14 13 13 13 13 13 12 12 11 10 11 11 12 12 12 12 12 12 10 10 9 7 5 5 7 4 5 10 11 11 12 12 12
13 11 11 14 16 15 13 12 13 13 14 13 12 13 13 13 12 12 11 9 9 10 11 11 11 11 10 9 9 8 7 7 6 6 2 3 5 8 10 10 10 11 10
11 10 11 14 14 14 14 13 11 11 11 11 11 12 12 13 12 12 11 8 8 10 10 9 9 9 9 8 7 6 6 6 5 5 4 4 3 5 9 9 8 8 9
10 8 12 14 14 14 14 13 11 11 11 11 10 11 11 12 12 11 10 9 8 8 8 8 8 6 7 5 4 5 6 6 6 5 6 5 3 6 7 8 8 7 8
10 8 10 11 13 14 13 13 12 11 11 11 11 11 11 11 12 10 8 8 8 7 6 7 6 5 4 3 3 4 4 4 3 3 3 3 4 8 7 8 6 6 7
14 12 9 12 13 14 14 13 12 12 12 11 11 10 10 10 10 8 8 6 6 6 5 5 4 3 2 2 3 2 2 2 3 1 2 3 4 7 7 6 5 5 5
7 10 8 8 10 13 14 13 12 13 12 11 11 10 10 9 8 8 8 7 6 6 6 5 4 3 1 1 1 3 2 2 1 1 1 3 8 7 7 7 5 4 4
6 7 10 9 6 7 7 11 12 12 12 12 11 10 9 10 10 8 8 7 7 7 5 4 4 4 4 3 2 3 3 3 2 2 2 3 8 9 10 8 7 6 4
5 8 10 11 9 6 5 7 10 11 12 11 10 11 9 5 6 8 7 8 8 6 5 6 6 5 3 4 4 4 2 1 1 1 1 7 11 12 11 10 8 7 6
8 8 11 13 12 7 6 6 6 6 5 5 6 6 4 5 4 6 6 8 8 6 6 6 6 4 5 2 2 4 1 1 2 3 3 8 12 14 9 9 9 7 7
12 9 8 9 10 10 7 5 4 4 3 4 6 6 5 4 4 3 2 3 3 5 3 4 3 2 3 2 2 3 3 2 2 3 4 6 10 13 10 9 10 9 9
14 14 13 12 11 11 7 7 7 6 5 5 6 6 5 3 4 4 3 4 4 3 4 4 3 4 5 3 4 4 4 3 2 3 4 6 8 13 9 10 10 9 10
16 16 18 16 15 12 11 8 8 8 7 7 6 7 5 5 5 4 4 4 4 3 4 4 4 4 4 4 4 4 4 4 3 3 2 4 6 9 12 9 9 9 11
16 18 15 18 16 14 14 13 10 8 9 7 7 7 9 6 5 6 5 5 4 5 5 5 5 4 4 4 5 3 2 2 2 1 3 4 5 6 9 11 11 9 12
19 16 18 17 14 15 15 12 10 9 9 8 8 9 10 9 8 8 6 6 6 6 6 4 5 3 4 3 4 4 3 2 1 1 1 2 3 5 5 7 9 11 12
13 18 16 15 17 16 16 11 9 9 9 8 8 8 11 11 9 8 6 7 6 5 5 4 4 4 4 4 3 4 3 2 3 3 3 2 3 4 4 7 9 9 10
19 16 18 18 20 20 15 11 10 10 9 8 8 9 11 12 11 9 8 7 7 6 6 7 4 3 3 3 4 3 3 3 4 3 4 4 5 4 3 6 7 8 9
18 18 17 15 16 16 10 9 8 8 9 9 9 10 11 9 11 10 8 8 7 6 6 4 4 2 4 5 3 2 3 3 3 4 5 3 4 5 5 4 3 4 7
18 17 19 18 18 13 12 12 12 15 11 10 9 11 12 10 11 11 9 8 8 8 10 9 4 5 4 4 3 2 2 5 5 4 3 4 5 4 4 4 3 3 3
22 23 20 20 18 17 13 12 8 9 7 7 6 8 11 12 12 11 11 10 11 8 8 7 7 3 3 5 3 3 5 5 3 3 2 4 6 3 4 3 4 4 4
20 22 22 23 21 19 16 9 2 3 2 4 6 9 11 12 13 14 13 11 10 10 9 9 10 10 5 5 4 6 3 4 2 3 3 4 5 2 3 4 4 4 4
20 18 18 18 16 15 14 12 15 11 10 10 9 6 6 10 12 12 12 11 10 7 10 9 8 7 4 5 3 2 2 4 3 3 3 4 4 4 4 4 5 5 5
7 10 9 9 9 10 11 11 10 9 6 2 4 6 8 7 10 11 10 11 11 8 8 7 5 6 4 1 5 1 2 1 1 3 3 4 3 4 4 3 4 4 5
6 6 7 9 8 8 9 9 13 13 8 5 5 6 6 6 6 9 12 11 11 9 9 9 8 10 6 5 5 5 4 3 4 4 4 6 5 6 4 4 4 5 4
Wind_Direction
190 153 157 148 139 131 124 121 118 116 114 117 115 111 109 108 108 109 108 107 108 106 103 100 100 101 98 93 90 89 87 83 78 79 79 77 74 73 69 67 69 64 61
152 154 152 149 143 136 132 130 121 119 115 116 112 110 109 108 107 104 103 105 106 107 106 106 105 104 98 94 91 88 83 83 79 72 82 89 94 92 89 81 70 60 52
147 154 153 151 142 140 139 128 119 124 125 123 118 113 113 114 114 110 105 105 110 110 110 110 108 105 104 100 91 86 86 86 80 55 89 83 71 76 80 78 74 66 57
143 150 155 146 143 141 135 132 130 136 132 131 128 125 124 122 120 115 109 107 113 119 116 116 115 113 106 98 92 89 85 65 41 49 126 75 87 92 88 84 77 71 65
137 153 147 142 147 140 139 134 136 138 135 134 134 135 135 133 129 126 120 119 130 128 127 126 119 113 103 97 98 92 81 71 53 35 124 113 87 101 91 88 78 81 83
142 141 142 149 146 143 139 138 138 142 141 140 146 148 146 140 136 137 137 136 135 133 133 123 111 102 99 105 106 89 65 49 43 23 127 131 136 117 102 94 94 91 81
140 130 150 146 145 143 141 140 148 151 151 152 158 158 153 149 148 147 140 132 135 136 123 106 96 91 86 78 49 42 49 56 93 62 154 120 164 131 124 120 108 107 96
147 147 150 151 147 146 149 149 157 161 162 164 164 161 160 153 153 148 133 137 128 109 102 97 109 117 74 22 358 1 357 3 55 360 299 167 183 146 140 128 126 115 113
125 142 143 151 156 153 159 163 165 167 170 169 170 173 161 155 153 148 151 151 137 145 148 158 160 140 171 194 292 322 307 316 77 276 47 168 187 169 161 155 154 165 155
115 127 154 163 158 160 167 166 172 174 174 176 178 175 165 162 162 164 168 167 166 181 172 178 190 189 204 237 255 269 319 349 359 249 254 202 207 194 188 174 182 186 167
142 155 165 168 171 155 164 179 180 183 181 182 181 183 174 169 171 177 186 186 189 195 189 211 214 218 238 247 259 264 292 225 284 272 254 252 226 211 200 185 187 194 191
183 186 174 169 177 164 176 175 183 191 185 186 187 185 169 173 179 181 192 200 205 208 219 232 237 237 253 272 304 314 269 223 283 247 248 250 227 225 216 201 203 196 201
178 176 187 179 176 173 182 176 183 184 178 196 196 187 177 167 185 194 192 212 212 221 230 240 263 245 256 255 282 277 297 315 243 273 277 250 230 222 217 205 215 206 209
187 187 181 182 184 184 179 186 187 188 190 197 200 186 179 178 189 195 201 207 197 202 224 230 228 232 246 251 248 268 291 287 316 288 291 287 232 232 241 217 223 225 214
196 192 192 187 188 187 189 188 191 195 194 199 193 193 188 188 192 182 207 198 201 191 216 226 223 220 229 234 245 232 237 255 280 269 273 293 245 264 270 265 246 243 243
201 203 193 195 193 188 195 196 197 192 195 194 199 196 199 195 195 196 199 213 205 200 208 213 213 207 221 205 180 159 150 160 206 342 15 357 339 289 292 303 304 280 253
205 196 197 192 194 199 201 198 197 197 195 199 202 197 202 196 201 199 202 209 211 207 209 214 227 210 199 204 184 199 193 192 217 193 198 238 287 289 289 292 299 301 300
203 203 195 191 191 198 203 200 203 202 199 202 201 201 204 205 199 207 206 216 215 199 200 204 202 197 196 193 197 218 203 226 244 226 227 243 277 292 293 281 284 294 300
198 198 198 195 194 197 202 201 199 202 207 203 201 203 206 204 204 203 213 218 204 210 209 210 200 169 185 201 216 203 232 248 255 267 262 237 258 254 268 275 283 288 292
198 197 201 200 195 193 194 199 202 204 210 201 202 206 201 203 204 206 214 215 203 205 212 196 165 158 186 191 204 220 261 270 267 262 267 298 269 254 259 275 285 280 286
199 192 197 194 196 183 191 196 202 212 209 211 208 202 199 204 203 207 217 214 208 208 209 200 154 172 208 170 121 333 274 254 253 246 251 257 261 254 257 273 287 276 281
196 196 194 199 191 193 195 198 209 201 212 215 210 209 204 202 204 207 210 212 212 209 212 198 184 183 187 189 145 64 330 341 326 280 273 266 277 308 300 290 278 281 290
195 195 198 196 194 194 193 184 122 97 109 166 198 204 210 207 212 213 213 213 209 204 210 202 200 193 181 210 191 140 124 242 307 332 308 276 266 285 293 297 280 266 264
201 197 201 196 191 189 181 184 196 202 204 220 221 219 204 206 213 210 208 208 214 211 220 205 206 207 185 194 90 297 124 154 177 307 325 317 305 266 284 304 300 288 257
172 189 187 180 169 175 179 187 192 205 212 176 181 207 218 215 215 213 206 205 211 216 217 194 188 151 5 68 111 177 252 55 203 199 245 282 312 258 242 240 280 283 283
113 120 123 138 158 158 173 182 196 207 203 187 194 212 212 221 219 221 215 215 220 218 191 187 159 126 168 176 160 228 156 178 217 182 213 249 221 250 219 203 244 263 263